Regional Weather Roundup
Issued by NWS Albany, NY

Home | Current Version | Previous Version | Graphics & Text | Print | Product List | Glossary Off
Versions: 1 2 3 4 5 6 7 8 9 10 11 12 13 14 15 16 17 18 19 20 21 22 23 24 25 26 27 28

000
ASUS41 KALY 220710
RWRALY

NEW YORK STATE HOURLY WEATHER ROUNDUP
NATIONAL WEATHER SERVICE ALBANY NY
200 AM EST SUN JAN 22 2017

NOTE: "FAIR" INDICATES FEW OR NO CLOUDS BELOW 12,000 FEET WITH NO
SIGNIFICANT WEATHER AND/OR NO OBSTRUCTIONS TO VISIBILITY.

NYZ032-033-038>043-046>054-057>066-NYZ062>081-082-084-220800-
EAST


CITY           SKY/WX    TMP DP  RH WIND       PRES   REMARKS
ALBANY         CLOUDY    38  35  89 CALM      29.75S
GLENS FALLS    CLOUDY    33  30  88 CALM      29.76R FOG
POUGHKEEPSIE   CLOUDY    42  41  96 VRB5      29.74F FOG
NEWBURGH       FOG       41  41 100 CALM      29.76F VSB 1/2
MONTGOMERY     CLOUDY    42  41  96 SW3       29.73F FOG
WHITE PLAINS   FOG       44  43  96 CALM      29.74F VSB 1/4
ISLIP          FOG       43  43 100 S3        29.77S VSB 1/4
NEW YORK CITY  FOG       47  45  93 S5        29.75F VSB 1
CENTRAL PARK   CLOUDY    44  44 100 CALM      29.78F FOG
$$

NYZ005>009-017-018-044>046-055-056-220800-
CENTRAL


CITY           SKY/WX    TMP DP  RH WIND       PRES   REMARKS
FULTON         CLOUDY    45  42  89 E6        29.69F
SYRACUSE       CLOUDY    42  41  96 CALM      29.70R
ROME           CLOUDY    38  37  97 CALM      29.73R
ELMIRA         FOG       40  38  93 CALM      29.71S VSB 1/4
BINGHAMTON     PTCLDY    43  43 100 S3        29.70S
MONTICELLO     CLOUDY    36  34  93 CALM      29.74S
$$

NYZ026>034-041>043-087-220800-
NORTH


CITY           SKY/WX    TMP DP  RH WIND       PRES   REMARKS
WATERTOWN      CLOUDY    38  38 100 NE8       29.72S FOG     WCI  32
FORT DRUM      NOT AVBL
OGDENSBURG     CLOUDY    37  37  99 E3        29.76R
MASSENA        CLOUDY    36  35  96 NE6       29.79R FOG     WCI  31
SARANAC LAKE   FOG       35  34  96 CALM      29.72R VSB 1/4
PLATTSBURGH    FOG       36  36 100 CALM      29.78R VSB 1/4
$$

NYZ001>004-010>016-019>021-085-220800-
WEST


CITY           SKY/WX    TMP DP  RH WIND       PRES   REMARKS
NIAGARA FALLS  FOG       36  34  92 NW3       29.68R VSB 1
BUFFALO        MOCLDY    44  43  96 N3        29.67S
DUNKIRK        CLEAR     40  39  97 S3        29.68R FOG
JAMESTOWN        N/A     50  46  87 CALM      29.68S
WELLSVILLE     CLOUDY    46  43  89 E3        29.70F
ROCHESTER      PTCLDY    41  40  96 CALM      29.68S FOG
PENN YAN       CLOUDY    49  43  80 SW13      29.69S
$$

             KEY
       WCI = WIND CHILL INDEX
       VSB = VISIBILITY
       HX  = HEAT INDEX
$$




USA.gov is the U.S. government's official web portal to all federal, state and local government web resources and services.